[[{"header":{"parameterUnit":"m.s-1","parameterCategory":1,"la1":30.2991,"la2":30.254,"lo1":-89.0895,"lo2":-89.0444,"dy":0.0017,"dx":0.0017,"nx":28,"ny":28,"refTime":"2024-05-30T21:00:00:Z","depth":0,"parameterNumber":2,"parameterNumberName":"U-component_of_WINDS"},"data":[0,0,0,0,0,0,0,0,0,0,0,0,0,0,0,0,0,0,0,0,0,0,0,0,0,0,0,0,0,0,0,0,0,0,0,0,0,0,0,0,0,0,0,0,0,0,0,0,0,0,0,0,0,0,0,0,0,0,-3.3896,-3.3896,0,-3.3934,-3.3934,-3.3935,-3.3912,-3.3911,-3.391,-3.3908,-3.3946,-3.3948,-3.395,0,0,0,0,0,0,0,0,0,0,0,0,0,-3.3803,-3.3805,-3.3896,-3.3896,-3.3896,-3.3934,-3.3934,-3.3935,-3.3912,-3.3911,-3.3909,-3.3908,-3.3945,-3.3947,-3.395,0,0,0,0,0,0,0,0,0,0,0,0,0,-3.3842,-3.3805,-3.3895,-3.389,-3.3889,-3.3934,-3.3934,-3.3935,-3.3912,-3.3911,-3.3909,-3.3907,-3.3944,-3.3947,-3.395,-3.4002,0,0,-3.3959,-3.3961,0,0,0,0,0,0,0,0,-3.384,-3.3846,-3.389,-3.389,-3.389,-3.3916,-3.3915,-3.3957,-3.3913,-3.3903,-3.3908,-3.3907,-3.3937,-3.3941,-3.3951,-3.4003,-3.4005,-3.396,-3.3961,-3.3963,-3.3964,0,0,0,0,0,0,0,-3.3837,-3.3844,-3.3911,-3.3891,-3.3891,-3.3885,-3.3889,-3.3923,-3.3929,-3.3904,-3.3903,-3.3908,-3.3937,-3.3948,-3.3952,-3.4005,-3.396,-3.3962,-3.3964,-3.3965,-3.4104,-3.4106,0,0,0,0,0,0,-3.3835,-3.3842,-3.3909,-3.3912,-3.3861,-3.3888,-3.3892,-3.391,-3.3929,-3.393,-3.3909,-3.3906,-3.3944,-3.3949,-3.3953,-3.4015,-3.3963,-3.3966,-3.3967,-3.4102,-3.4104,-3.4106,0,0,0,0,0,0,-3.3833,-3.3841,-3.3908,-3.3876,-3.3885,-3.3892,-3.3911,-3.3911,-3.3923,-3.3932,-3.3933,-3.392,-3.3943,-3.3949,-3.399,-3.4016,-3.3967,-3.397,-3.41,-3.4103,-3.4105,-3.4139,0,0,0,0,0,0,-3.3831,-3.3841,-3.386,-3.3877,-3.3886,-3.3944,-3.3913,-3.3913,-3.3928,-3.3925,-3.3942,-3.3944,-3.3942,-3.3986,-3.3993,-3.4019,-3.3972,-3.4097,-3.4101,-3.4104,-3.4136,-3.4143,-3.4149,0,0,0,0,0,-3.3828,-3.3867,-3.3861,-3.3869,-3.391,-3.3946,-3.3951,-3.3949,-3.393,-3.395,-3.3957,-3.3943,-3.4013,-3.399,-3.3998,-3.4026,-3.4096,-3.41,-3.4104,-3.4133,-3.4141,-3.4149,0,0,0,0,0,0,-3.3851,-3.3869,-3.3862,-3.3909,-3.3926,-3.3942,-3.3966,-3.3958,-3.3979,-3.3976,-3.3972,-3.3976,-3.4019,-3.4027,-3.4002,-3.4078,-3.4051,-3.4057,-3.407,-3.4079,-3.4085,-3.4081,-3.3974,0,0,0,0,0,-3.3862,-3.389,-3.3904,-3.3943,-3.3953,-3.3958,-3.3973,-3.3971,-3.3988,-3.3995,-3.4004,-3.4021,-3.4047,-3.4064,-3.4088,-3.4138,-3.4142,-3.4161,-3.4168,-3.4173,-3.4178,-3.4206,-3.4215,-3.412,-3.412,-3.412,0,0,-3.3884,-3.3898,-3.3915,-3.3949,-3.3961,-3.399,-3.3964,-3.3995,-3.4016,-3.3999,-3.4038,-3.4047,-3.4066,-3.4112,-3.4133,-3.412,-3.4205,-3.4179,-3.4183,-3.4184,-3.4211,-3.422,-3.4228,-3.4123,-3.4122,-3.4122,0,0,-3.3939,-3.3952,-3.3987,-3.4001,-3.4022,-3.4026,-3.4035,-3.4053,-3.4058,-3.4098,-3.4087,-3.4112,-3.4156,-3.4171,-3.4184,-3.4249,-3.4237,-3.4257,-3.429,-3.4318,-3.4325,-3.4332,-3.4354,-3.4363,-3.4262,-3.4262,-3.4262,0,-3.3963,-3.4005,-3.4005,-3.4038,-3.4053,-3.4042,-3.4078,-3.4092,-3.4119,-3.413,-3.4116,-3.4173,-3.4185,-3.4235,-3.4251,-3.4263,-3.4272,-3.4253,-3.4324,-3.4331,-3.4337,-3.4358,-3.4367,-3.4264,-3.4264,-3.4264,-3.4264,0,-3.4034,-3.4065,-3.409,-3.4119,-3.4138,-3.4171,-3.4177,-3.4197,-3.4194,-3.42,-3.4242,-3.4257,-3.4284,-3.4297,-3.4293,-3.4347,-3.4338,-3.4325,-3.4297,-3.4348,-3.4368,-3.4377,-3.4267,-3.4267,-3.4266,-3.4265,0,0,-3.41,-3.4132,-3.4141,-3.4154,-3.4179,-3.4202,-3.4236,-3.4265,-3.4281,-3.4302,-3.4331,-3.4371,-3.4359,-3.4374,-3.4373,-3.4398,-3.4448,-3.4381,-3.4381,-3.4392,-3.4509,-3.4517,-3.4527,-3.4443,-3.4444,-3.4445,-3.4507,0,-3.4156,-3.4216,-3.4219,-3.4273,-3.4302,-3.4294,-3.4324,-3.4342,-3.435,-3.4375,-3.4384,-3.4412,-3.4395,-3.4404,-3.4428,-3.4437,-3.4471,-3.4433,-3.4468,-3.4469,-3.4461,-3.4538,-3.4547,-3.4603,-3.4515,-3.4516,-3.4517,0,-3.4227,-3.4251,-3.4309,-3.4332,-3.4344,-3.4371,-3.4398,-3.4423,-3.4445,-3.4449,-3.4468,-3.4464,-3.45,-3.4475,-3.4524,-3.4498,-3.4514,-3.4521,-3.4523,-3.4524,-3.4494,-3.4539,-3.4622,-3.4629,-3.453,-3.4529,-3.4528,0,-3.4268,-3.4316,-3.4357,-3.4369,-3.4397,-3.4416,-3.4428,-3.4449,-3.4467,-3.4491,-3.4503,-3.4531,-3.4546,-3.4569,-3.4573,-3.4554,-3.4623,-3.4598,-3.4627,-3.4627,-3.4639,-3.4638,-3.4723,-3.4653,-3.4652,-3.4652,-3.4652,0,-3.4328,-3.4363,-3.4376,-3.4401,-3.4442,-3.4446,-3.4486,-3.4497,-3.4516,-3.4543,-3.4539,-3.4565,-3.457,-3.4598,-3.4602,-3.4643,-3.465,-3.4654,-3.4654,-3.4653,-3.4652,-3.4661,-3.4656,-3.4655,-3.4654,-3.4654,-3.4653,0,-3.4379,-3.4389,-3.4434,-3.4458,-3.4465,-3.4493,-3.4514,-3.4538,-3.4547,-3.4582,-3.4591,-3.4604,-3.4637,-3.4644,-3.4682,-3.4685,-3.4733,-3.4731,-3.4726,-3.4725,-3.4753,-3.475,-3.4846,-3.4858,-3.4781,-3.4782,-3.4782,0,-3.4415,-3.4443,-3.4471,-3.449,-3.4503,-3.4533,-3.4552,-3.4559,-3.4579,-3.4608,-3.4629,-3.4661,-3.4687,-3.4739,-3.4752,-3.4782,-3.4779,-3.4811,-3.4783,-3.4782,-3.4778,-3.4775,-3.4778,-3.4815,-3.4815,-3.4816,-3.4817,0,-3.4479,-3.4483,-3.4511,-3.4542,-3.4565,-3.4589,-3.4612,-3.4628,-3.4638,-3.4661,-3.4694,-3.4715,-3.4755,-3.4787,-3.4818,-3.4831,-3.4825,-3.4826,-3.4834,-3.4832,-3.4828,-3.483,-3.4738,-3.4823,-3.4822,-3.4822,-3.4821,-3.4821,-3.4522,-3.4547,-3.4571,-3.4603,-3.4622,-3.4645,-3.4669,-3.4683,-3.4711,-3.4745,-3.4748,-3.4785,-3.4808,-3.4849,-3.4864,-3.4893,-3.4884,-3.4895,-3.4898,-3.4901,-3.4903,-3.4826,-3.4899,-3.4899,-3.4899,-3.4899,-3.4899,0,-3.4584,-3.4601,-3.463,-3.4664,-3.4689,-3.4685,-3.4711,-3.4733,-3.4765,-3.4788,-3.4815,-3.4855,-3.4887,-3.4904,-3.4936,-3.4956,-3.4955,-3.4964,-3.4962,-3.4965,-3.491,-3.4899,-3.4965,-3.4965,-3.4965,-3.4965,-3.4965,-3.4965,-3.4619,-3.4661,-3.467,-3.4721,-3.4737,-3.4774,-3.479,-3.4811,-3.4829,-3.4874,-3.4902,-3.4914,-3.4935,-3.4969,-3.4999,-3.5003,-3.5014,-3.5025,-3.5028,-3.4976,-3.4969,-3.4962,-3.4952,-3.5028,-3.5028,-3.508,-3.5081,-3.5081]},{"header":{"parameterUnit":"m.s-1","parameterCategory":1,"la1":30.2991,"la2":30.254,"lo1":-89.0895,"lo2":-89.0444,"dy":0.0017,"dx":0.0017,"nx":28,"ny":28,"refTime":"2024-05-30T21:00:00:Z","depth":0,"parameterNumber":3,"parameterNumberName":"V-component_of_WINDS"},"data":[0,0,0,0,0,0,0,0,0,0,0,0,0,0,0,0,0,0,0,0,0,0,0,0,0,0,0,0,0,0,0,0,0,0,0,0,0,0,0,0,0,0,0,0,0,0,0,0,0,0,0,0,0,0,0,0,0,0,5.1226,5.1226,0,5.1183,5.1182,5.1182,5.1101,5.1099,5.1098,5.1096,5.1049,5.1049,5.105,0,0,0,0,0,0,0,0,0,0,0,0,0,5.124,5.124,5.1226,5.1226,5.1225,5.1183,5.1182,5.1182,5.1101,5.1099,5.1097,5.1096,5.1049,5.1049,5.105,0,0,0,0,0,0,0,0,0,0,0,0,0,5.1219,5.124,5.1226,5.118,5.1175,5.1183,5.1182,5.1181,5.1102,5.1099,5.1097,5.1095,5.1049,5.1049,5.105,5.1098,0,0,5.1051,5.1051,0,0,0,0,0,0,0,0,5.122,5.1218,5.1187,5.1183,5.1178,5.1145,5.1169,5.1153,5.1102,5.113,5.1096,5.1094,5.1083,5.108,5.1077,5.1096,5.1094,5.1051,5.1051,5.1051,5.1051,0,0,0,0,0,0,0,5.1222,5.122,5.1209,5.1187,5.1181,5.1161,5.1156,5.1166,5.112,5.1127,5.1121,5.1117,5.108,5.1077,5.1075,5.1093,5.1051,5.1051,5.1051,5.1051,5.1152,5.1155,0,0,0,0,0,0,5.123,5.1221,5.121,5.1208,5.1194,5.1163,5.1157,5.1158,5.1119,5.1111,5.1119,5.1113,5.1078,5.1075,5.1073,5.1129,5.1051,5.1051,5.1051,5.115,5.1153,5.1156,0,0,0,0,0,0,5.1231,5.123,5.1212,5.1213,5.1209,5.1165,5.1167,5.1158,5.1155,5.1113,5.1105,5.1125,5.1076,5.1073,5.1093,5.1126,5.1051,5.1052,5.1147,5.1151,5.1154,5.1241,0,0,0,0,0,0,5.1231,5.123,5.1248,5.1214,5.121,5.1233,5.1169,5.1159,5.1156,5.1149,5.1116,5.1109,5.1074,5.1093,5.1094,5.1125,5.1052,5.1144,5.1149,5.1153,5.1235,5.1247,5.1257,0,0,0,0,0,5.1232,5.1273,5.1249,5.1249,5.1231,5.1235,5.1232,5.1192,5.1159,5.1177,5.1151,5.111,5.1123,5.1096,5.1096,5.1128,5.1141,5.1147,5.1153,5.123,5.1244,5.1257,0,0,0,0,0,0,5.131,5.1268,5.1241,5.1272,5.1258,5.1221,5.1242,5.1208,5.1203,5.1195,5.1145,5.1138,5.1166,5.1149,5.112,5.1175,5.1126,5.1132,5.1184,5.1198,5.121,5.1213,5.1052,0,0,0,0,0,5.1332,5.1339,5.1301,5.1332,5.1327,5.1286,5.1286,5.1257,5.124,5.1233,5.1208,5.1193,5.1193,5.1195,5.1193,5.1232,5.1225,5.1254,5.1266,5.1275,5.1281,5.1303,5.1316,5.1174,5.1174,5.1174,0,0,5.1375,5.1352,5.136,5.1348,5.1333,5.1342,5.1282,5.1293,5.1299,5.1234,5.1253,5.1234,5.1214,5.1245,5.1257,5.1232,5.1319,5.1283,5.1291,5.1291,5.131,5.1324,5.1336,5.1178,5.1177,5.1177,0,0,5.1459,5.1442,5.1467,5.1455,5.1435,5.1408,5.1415,5.1384,5.137,5.1388,5.134,5.1347,5.1349,5.1337,5.1331,5.1415,5.1378,5.1416,5.1475,5.1497,5.1508,5.1518,5.1549,5.1561,5.1422,5.1422,5.1422,0,5.1515,5.1527,5.1484,5.15,5.1497,5.1441,5.1466,5.1456,5.1436,5.1435,5.1408,5.1411,5.1393,5.1422,5.1443,5.1439,5.1446,5.1419,5.151,5.1519,5.1528,5.1557,5.1569,5.1427,5.1426,5.1426,5.1425,0,5.1598,5.1607,5.163,5.1615,5.1614,5.1634,5.1596,5.16,5.1572,5.1548,5.1569,5.1546,5.154,5.1544,5.1515,5.157,5.1555,5.1519,5.147,5.1547,5.1574,5.1584,5.1434,5.1432,5.143,5.1429,0,0,5.1727,5.1691,5.17,5.1693,5.1668,5.1675,5.1694,5.169,5.1695,5.1684,5.1699,5.1704,5.1672,5.1666,5.1636,5.1655,5.1725,5.1617,5.1616,5.1639,5.1786,5.1813,5.1827,5.1701,5.1703,5.1704,5.1788,0,5.1806,5.1837,5.1801,5.184,5.1849,5.1798,5.1814,5.1801,5.1781,5.1786,5.1762,5.1767,5.1724,5.1721,5.1737,5.1713,5.1754,5.1707,5.1715,5.1716,5.1722,5.184,5.1868,5.1948,5.1798,5.18,5.1801,0,5.1902,5.1898,5.1938,5.1914,5.1916,5.1932,5.1927,5.1932,5.1917,5.19,5.1896,5.186,5.1878,5.1831,5.1855,5.1824,5.1825,5.1814,5.1816,5.1816,5.1763,5.1843,5.1972,5.1985,5.1817,5.1815,5.1814,0,5.1994,5.1999,5.2024,5.202,5.1991,5.2004,5.1993,5.1976,5.1976,5.1972,5.1972,5.1969,5.1967,5.1966,5.1931,5.19,5.1961,5.191,5.1949,5.195,5.1963,5.1963,5.2095,5.1964,5.1964,5.1964,5.1963,0,5.2086,5.2113,5.2066,5.2081,5.2111,5.207,5.21,5.2083,5.2069,5.2081,5.2035,5.2047,5.2001,5.2008,5.1981,5.2007,5.2006,5.1994,5.1986,5.1998,5.2,5.1998,5.1992,5.1967,5.1966,5.1965,5.1965,0,5.2194,5.2163,5.2188,5.216,5.2154,5.2177,5.2153,5.2167,5.2145,5.2161,5.2162,5.2127,5.2133,5.2099,5.2099,5.2081,5.212,5.2103,5.2126,5.2121,5.2162,5.2159,5.2298,5.2315,5.2173,5.2174,5.2175,0,5.2255,5.2275,5.2251,5.2256,5.2248,5.2256,5.2258,5.2219,5.2222,5.2208,5.2224,5.2228,5.2228,5.2242,5.2216,5.2217,5.2199,5.2248,5.2199,5.2211,5.2201,5.2201,5.2203,5.2258,5.226,5.2262,5.2263,0,5.2367,5.2351,5.2355,5.2355,5.2359,5.2356,5.235,5.2357,5.2315,5.2321,5.2329,5.233,5.2331,5.2336,5.2332,5.232,5.2285,5.2279,5.2288,5.23,5.2313,5.2308,5.2155,5.2275,5.2274,5.2273,5.2273,5.2272,5.2453,5.247,5.2456,5.2463,5.2455,5.2452,5.2464,5.2445,5.245,5.2449,5.2426,5.2439,5.2425,5.2417,5.2409,5.2418,5.2395,5.2408,5.2411,5.2415,5.2423,5.2312,5.2417,5.2417,5.2417,5.2416,5.2416,0,5.2564,5.2553,5.256,5.2555,5.2561,5.2529,5.2522,5.2529,5.2541,5.2532,5.2535,5.2544,5.2549,5.2526,5.2527,5.254,5.2524,5.2542,5.254,5.2539,5.2443,5.2436,5.2555,5.2555,5.2555,5.2555,5.2555,5.2554,5.2622,5.2649,5.2633,5.2656,5.2645,5.2657,5.2657,5.2654,5.2647,5.266,5.2665,5.265,5.2635,5.2636,5.264,5.2633,5.2636,5.266,5.2647,5.2559,5.2545,5.2532,5.2525,5.2661,5.2661,5.2742,5.2743,5.2743]}]]